Location: Moscow
(55.7500°N, 37.5830°E)
Time: 11:38:32
(UTC+03:00)

Vanguard 3 - Pass Details

Date: 06 December 2021
Orbit: 508 x 3260 km, 33.3° (Epoch: 19 January)

Event Time Altitude Azimuth Distance (km) Brightness Sun altitude
Rises 09:23:41 0° 268° (W) 6,990 11.5 3.2°
Reaches altitude 10° 09:31:51 10° 249° (WSW) 5,526 11.2 3.9°
Maximum altitude 09:38:42 14° 224° (SW) 4,636 11.2 4.5°
Drops below altitude 10° 09:44:25 10° 197° (SSW) 4,445 11.5 5.0°
Sets 09:49:37 0° 174° (S) 4,866 12.4 5.4°
